| time (UTC) | temp C | wind direction | speed KPH | gust KPH | rain 1hr cm | rain 24hr cm | rain mn cm | humidity % | barometer mb |
| 20260505223926 | 4 | 255 | 40.2 | 80.5 | 0.00 | 1.22 | 1.17 | 53 | 1006.1 |
| 20260505222926 | 3 | 258 | 35.4 | 62.8 | 0.00 | 1.22 | 1.17 | 56 | 1006.2 |
| 20260505221926 | 3 | 252 | 33.8 | 69.2 | 0.00 | 1.22 | 1.17 | 67 | 1006.2 |
| 20260505220926 | 2 | 250 | 27.4 | 53.1 | 0.00 | 1.22 | 1.17 | 76 | 1006.4 |
| 20260505215928 | 3 | 258 | 40.2 | 62.8 | 0.00 | 1.22 | 1.17 | 78 | 1006.4 |
| 20260505214927 | 2 | 258 | 32.2 | 69.2 | 0.00 | 1.22 | 1.17 | 79 | 1006.5 |
| 20260505213927 | 2 | 260 | 32.2 | 56.3 | 0.00 | 1.22 | 1.17 | 79 | 1006.6 |
| 20260505212928 | 2 | 257 | 35.4 | 62.8 | 0.00 | 1.22 | 1.17 | 79 | 1006.6 |
| 20260505211927 | 2 | 247 | 33.8 | 57.9 | 0.00 | 1.22 | 1.17 | 79 | 1006.8 |
| 20260505210926 | 2 | 271 | 33.8 | 53.1 | 0.00 | 1.22 | 1.17 | 79 | 1006.8 |
| 20260505205928 | 2 | 256 | 32.2 | 49.9 | 0.00 | 1.22 | 1.17 | 79 | 1007.0 |
| 20260505204927 | 2 | 248 | 33.8 | 53.1 | 0.00 | 1.22 | 1.17 | 79 | 1006.8 |
| 20260505203927 | 2 | 251 | 30.6 | 53.1 | 0.00 | 1.22 | 1.17 | 79 | 1007.0 |
| 20260505202928 | 2 | 256 | 37.0 | 59.5 | 0.00 | 1.22 | 1.17 | 79 | 1006.9 |
| 20260505201926 | 2 | 248 | 38.6 | 53.1 | 0.00 | 1.22 | 1.17 | 79 | 1006.9 |
| 20260505200926 | 2 | 252 | 30.6 | 56.3 | 0.00 | 1.22 | 1.17 | 79 | 1007.0 |
| 20260505195926 | 2 | 258 | 35.4 | 54.7 | 0.00 | 1.22 | 1.17 | 79 | 1007.0 |
| 20260505194926 | 2 | 254 | 37.0 | 59.5 | 0.00 | 1.22 | 1.17 | 79 | 1007.1 |
| 20260505193927 | 2 | 257 | 35.4 | 57.9 | 0.00 | 1.22 | 1.17 | 79 | 1007.1 |
| 20260505192927 | 2 | 249 | 32.2 | 57.9 | 0.00 | 1.22 | 1.17 | 79 | 1006.9 |
| 20260505191927 | 2 | 262 | 37.0 | 54.7 | 0.00 | 1.22 | 1.17 | 79 | 1007.2 |
| 20260505190926 | 2 | 255 | 35.4 | 64.4 | 0.00 | 1.22 | 1.17 | 79 | 1007.2 |
| 20260505185926 | 2 | 251 | 22.5 | 62.8 | 0.00 | 1.22 | 1.17 | 79 | 1007.3 |
| 20260505184926 | 2 | 254 | 32.2 | 59.5 | 0.00 | 1.22 | 1.17 | 79 | 1007.3 |
| 20260505183926 | 2 | 259 | 29.0 | 48.3 | 0.00 | 1.22 | 1.17 | 79 | 1007.3 |
| 20260505182926 | 2 | 261 | 30.6 | 51.5 | 0.00 | 1.22 | 1.17 | 79 | 1007.3 |
| 20260505181927 | 2 | 250 | 30.6 | 53.1 | 0.00 | 1.22 | 1.17 | 79 | 1007.4 |
| 20260505180927 | 2 | 254 | 32.2 | 48.3 | 0.00 | 1.22 | 1.17 | 79 | 1007.5 |
| 20260505175927 | 2 | 251 | 32.2 | 48.3 | 0.00 | 1.22 | 1.17 | 79 | 1007.4 |
| 20260505174926 | 2 | 259 | 29.0 | 48.3 | 0.00 | 1.22 | 1.17 | 79 | 1007.5 |
| 20260505173927 | 2 | 248 | 24.1 | 43.5 | 0.00 | 1.22 | 1.17 | 79 | 1007.4 |
| 20260505172928 | 2 | 260 | 29.0 | 43.5 | 0.00 | 1.22 | 1.17 | 79 | 1007.6 |
| 20260505171929 | 2 | 249 | 25.7 | 46.7 | 0.00 | 1.22 | 1.17 | 79 | 1007.5 |
| 20260505170927 | 2 | 238 | 27.4 | 51.5 | 0.00 | 1.22 | 1.17 | 79 | 1007.4 |
| 20260505165926 | 2 | 255 | 32.2 | 56.3 | 0.00 | 1.22 | 1.17 | 79 | 1007.5 |
| 20260505164926 | 2 | 259 | 19.3 | 46.7 | 0.00 | 1.22 | 1.17 | 79 | 1007.7 |
| 20260505163926 | 2 | 263 | 33.8 | 53.1 | 0.00 | 1.22 | 1.17 | 79 | 1007.4 |
| 20260505162926 | 2 | 251 | 29.0 | 48.3 | 0.00 | 1.22 | 1.17 | 79 | 1007.3 |
| 20260505161926 | 2 | 250 | 32.2 | 53.1 | 0.00 | 1.22 | 1.17 | 79 | 1007.1 |
| 20260505160926 | 2 | 262 | 32.2 | 53.1 | 0.05 | 1.22 | 1.17 | 79 | 1007.0 |
| 20260505152927 | 2 | 249 | 29.0 | 46.7 | 0.48 | 1.22 | 1.17 | 79 | 1006.9 |
| 20260505152256 | 2 | 245 | 35.4 | 48.3 | 0.61 | 1.22 | 1.17 | 79 | 1007.1 |
| 20260505151926 | 2 | 245 | 35.4 | 48.3 | 0.61 | 1.22 | 1.17 | 79 | 1007.1 |
| 20260505150927 | 2 | 243 | 27.4 | 43.5 | 0.58 | 1.17 | 1.12 | 79 | 1007.0 |
| 20260505123925 | 2 | 250 | 12.9 | 20.9 | 0.05 | 0.23 | 0.18 | 78 | 1006.7 |
| 20260505122925 | 2 | 250 | 14.5 | 22.5 | 0.05 | 0.23 | 0.18 | 78 | 1006.6 |
| 20260505121927 | 2 | 257 | 16.1 | 24.1 | 0.03 | 0.20 | 0.15 | 78 | 1006.6 |
| 20260505120926 | 2 | 256 | 14.5 | 29.0 | 0.03 | 0.20 | 0.15 | 78 | 1006.7 |
| 20260505115928 | 2 | 254 | 17.7 | 29.0 | 0.00 | 0.18 | 0.13 | 78 | 1006.6 |
| 20260505114925 | 2 | 243 | 17.7 | 27.4 | 0.00 | 0.18 | 0.13 | 78 | 1006.7 |
| 20260505113926 | 2 | 258 | 17.7 | 29.0 | 0.03 | 0.18 | 0.13 | 78 | 1006.7 |
| 20260505112925 | 2 | 260 | 17.7 | 25.7 | 0.03 | 0.18 | 0.13 | 78 | 1006.9 |
| 20260505111926 | 2 | 250 | 16.1 | 30.6 | 0.03 | 0.18 | 0.13 | 78 | 1006.8 |
| 20260505110929 | 2 | 253 | 19.3 | 32.2 | 0.05 | 0.18 | 0.13 | 78 | 1006.9 |
| 20260505101817 | 2 | 256 | 24.1 | 40.2 | 0.05 | 0.13 | 0.08 | 78 | 1007.3 |
| 20260505100925 | 2 | 256 | 24.1 | 40.2 | 0.05 | 0.13 | 0.08 | 78 | 1007.3 |
| 20260505095926 | 2 | 252 | 27.4 | 45.1 | 0.05 | 0.13 | 0.08 | 78 | 1007.3 |
| 20260505094925 | 2 | 247 | 25.7 | 43.5 | 0.05 | 0.13 | 0.08 | 78 | 1007.4 |
| 20260505093925 | 2 | 252 | 29.0 | 45.1 | 0.05 | 0.13 | 0.08 | 78 | 1007.5 |
| 20260505092925 | 2 | 255 | 27.4 | 41.8 | 0.03 | 0.10 | 0.05 | 78 | 1007.6 |
| 20260505091925 | 2 | 258 | 22.5 | 38.6 | 0.05 | 0.10 | 0.05 | 78 | 1007.8 |
| 20260505090927 | 2 | 254 | 22.5 | 40.2 | 0.03 | 0.08 | 0.03 | 78 | 1007.8 |
| 20260505085928 | 2 | 250 | 22.5 | 45.1 | 0.03 | 0.08 | 0.03 | 78 | 1008.0 |
| 20260505084925 | 2 | 252 | 30.6 | 46.7 | 0.05 | 0.08 | 0.03 | 78 | 1008.2 |
| 20260505083522 | 2 | 247 | 32.2 | 49.9 | 0.05 | 0.08 | 0.03 | 78 | 1008.2 |
| 20260505082522 | 3 | 245 | 30.6 | 43.5 | 0.08 | 0.08 | 0.03 | 78 | 1008.3 |
| 20260505081522 | 3 | 245 | 30.6 | 45.1 | 0.05 | 0.05 | 0.00 | 78 | 1008.5 |
| 20260505080523 | 3 | 247 | 30.6 | 48.3 | 0.05 | 0.05 | 0.05 | 78 | 1008.7 |
| 20260505075522 | 3 | 244 | 35.4 | 53.1 | 0.03 | 0.03 | 0.03 | 78 | 1008.6 |
| 20260505074522 | 3 | 249 | 37.0 | 54.7 | 0.03 | 0.03 | 0.03 | 78 | 1008.5 |
| 20260505073522 | 2 | 250 | 33.8 | 51.5 | 0.03 | 0.03 | 0.03 | 78 | 1008.8 |
| 20260505071522 | 2 | 260 | 37.0 | 57.9 | 0.00 | 0.00 | 0.00 | 78 | 1008.8 |
| 20260505070522 | 2 | 253 | 40.2 | 57.9 | 0.00 | 0.00 | 0.00 | 78 | 1008.6 |
| 20260505065524 | 2 | 250 | 38.6 | 49.9 | 0.00 | 0.00 | 0.00 | 78 | 1008.6 |
| 20260505065025 | 2 | 252 | 41.8 | 56.3 | 0.00 | 0.00 | 0.00 | 78 | 1008.5 |
| 20260505064522 | 2 | 252 | 41.8 | 56.3 | 0.00 | 0.00 | 0.00 | 78 | 1008.5 |
| 20260505063522 | 2 | 254 | 37.0 | 53.1 | 0.00 | 0.00 | 0.00 | 77 | 1008.6 |
| 20260505062522 | 2 | 257 | 38.6 | 56.3 | 0.00 | 0.00 | 0.00 | 77 | 1008.8 |
| 20260505061522 | 2 | 254 | 37.0 | 57.9 | 0.00 | 0.00 | 0.00 | 77 | 1008.8 |
| 20260505060522 | 2 | 258 | 40.2 | 56.3 | 0.00 | 0.00 | 0.00 | 77 | 1008.9 |
| 20260505055522 | 2 | 262 | 38.6 | 64.4 | 0.00 | 0.00 | 0.00 | 77 | 1009.0 |
| 20260505054525 | 2 | 255 | 41.8 | 54.7 | 0.00 | 0.00 | 0.00 | 77 | 1008.8 |
| 20260505053522 | 2 | 259 | 40.2 | 64.4 | 0.00 | 0.00 | 0.00 | 77 | 1008.9 |
| 20260505052522 | 2 | 245 | 40.2 | 59.5 | 0.00 | 0.00 | 0.00 | 77 | 1008.9 |
| 20260505051522 | 2 | 247 | 43.5 | 57.9 | 0.00 | 0.00 | 0.00 | 77 | 1008.8 |
| 20260505050522 | 2 | 255 | 41.8 | 57.9 | 0.00 | 0.00 | 0.00 | 76 | 1008.7 |
| 20260505041522 | 2 | 250 | 40.2 | 59.5 | 0.00 | 0.00 | 0.00 | 75 | 1008.7 |
| 20260505040522 | 2 | 252 | 38.6 | 56.3 | 0.00 | 0.00 | 0.00 | 74 | 1008.9 |
| 20260505035523 | 2 | 257 | 41.8 | 57.9 | 0.00 | 0.00 | 0.00 | 72 | 1008.8 |
| 20260505034522 | 2 | 253 | 41.8 | 57.9 | 0.00 | 0.00 | 0.00 | 70 | 1008.9 |
| 20260505033523 | 2 | 252 | 38.6 | 57.9 | 0.00 | 0.00 | 0.00 | 68 | 1008.9 |
| 20260505032522 | 3 | 252 | 37.0 | 53.1 | 0.00 | 0.00 | 0.00 | 67 | 1008.7 |
| 20260505031524 | 3 | 240 | 33.8 | 43.5 | 0.00 | 0.00 | 0.00 | 66 | 1008.5 |
| 20260505030524 | 3 | 247 | 38.6 | 51.5 | 0.00 | 0.00 | 0.00 | 66 | 1008.8 |
| 20260505025522 | 3 | 255 | 33.8 | 51.5 | 0.00 | 0.00 | 0.00 | 64 | 1008.9 |
| 20260505024522 | 3 | 251 | 37.0 | 56.3 | 0.00 | 0.00 | 0.00 | 64 | 1008.8 |
| 20260505023522 | 3 | 248 | 41.8 | 61.2 | 0.00 | 0.00 | 0.00 | 63 | 1008.8 |
| 20260505022023 | 4 | 249 | 41.8 | 57.9 | 0.00 | 0.00 | 0.00 | 62 | 1008.6 |
| 20260505021022 | 4 | 246 | 41.8 | 56.3 | 0.00 | 0.00 | 0.00 | 57 | 1008.5 |
| 20260505020022 | 5 | 245 | 38.6 | 56.3 | 0.00 | 0.00 | 0.00 | 53 | 1008.7 |
| 20260505015022 | 5 | 244 | 37.0 | 53.1 | 0.00 | 0.00 | 0.00 | 51 | 1008.8 |
| 20260505014022 | 5 | 247 | 38.6 | 59.5 | 0.00 | 0.00 | 0.00 | 50 | 1008.8 |
| 20260505013057 | 5 | 254 | 43.5 | 57.9 | 0.00 | 0.00 | 0.00 | 50 | 1008.8 |
| 20260505013022 | 5 | 254 | 43.5 | 57.9 | 0.00 | 0.00 | 0.00 | 50 | 1008.8 |
| 20260505012022 | 5 | 249 | 37.0 | 49.9 | 0.00 | 0.00 | 0.00 | 49 | 1008.9 |
| 20260505011022 | 5 | 247 | 37.0 | 49.9 | 0.00 | 0.00 | 0.00 | 48 | 1008.8 |
| 20260505010024 | 5 | 247 | 37.0 | 51.5 | 0.00 | 0.00 | 0.00 | 47 | 1009.0 |
| 20260505005022 | 5 | 249 | 37.0 | 53.1 | 0.00 | 0.00 | 0.00 | 45 | 1009.0 |
| 20260505004022 | 5 | 259 | 37.0 | 57.9 | 0.00 | 0.00 | 0.00 | 44 | 1009.1 |
| 20260505002228 | 5 | 252 | 41.8 | 51.5 | 0.00 | 0.00 | 0.00 | 44 | 1009.0 |
| 20260505001229 | 6 | 243 | 37.0 | 51.5 | 0.00 | 0.00 | 0.00 | 43 | 1008.9 |
| 20260505000229 | 6 | 240 | 35.4 | 54.7 | 0.00 | 0.00 | 0.00 | 42 | 1009.4 |
| 20260504235230 | 6 | 251 | 32.2 | 51.5 | 0.00 | 0.00 | 0.00 | 41 | 1009.3 |
| 20260504234230 | 6 | 254 | 38.6 | 61.2 | 0.00 | 0.00 | 0.00 | 42 | 1009.4 |
| 20260504233228 | 6 | 251 | 40.2 | 56.3 | 0.00 | 0.00 | 0.00 | 40 | 1009.4 |
| 20260504232228 | 6 | 241 | 40.2 | 54.7 | 0.00 | 0.00 | 0.00 | 37 | 1009.1 |
| 20260504231228 | 6 | 250 | 37.0 | 54.7 | 0.00 | 0.00 | 0.00 | 36 | 1009.5 |
| 20260504230229 | 6 | 255 | 37.0 | 59.5 | 0.00 | 0.00 | 0.00 | 35 | 1009.7 |
| 20260504225228 | 7 | 249 | 38.6 | 70.8 | 0.00 | 0.00 | 0.00 | 36 | 1009.7 |